EN

Hourly Weather Dzimierz

Today, 31 October, Saturday

Time Temperature Precipitation Wind Pressure Humidity
00:00 +11°C° 0.4 mm 4 mps 741 mmHg 93%
01:00 +11°C° 0 mm 4 mps 741 mmHg 94%
02:00 +11°C° 0.8 mm 3 mps 741 mmHg 94%
03:00 +11°C° 0.8 mm 3 mps 741 mmHg 95%
04:00 +11°C° 0.8 mm 3 mps 742 mmHg 95%
05:00 +11°C° 1.1 mm 3 mps 742 mmHg 95%
06:00 +10°C° 1.1 mm 3 mps 742 mmHg 95%
07:00 +10°C° 1.1 mm 2 mps 743 mmHg 94%
08:00 +10°C° 0.2 mm 2 mps 743 mmHg 93%
09:00 +10°C° 0.2 mm 2 mps 744 mmHg 91%
10:00 +11°C° 0.2 mm 1 mps 744 mmHg 89%
11:00 +11°C° 0 mm 1 mps 744 mmHg 84%
12:00 +12°C° 0 mm 1 mps 745 mmHg 79%
13:00 +12°C° 0 mm 1 mps 745 mmHg 73%
14:00 +12°C° 0 mm 1 mps 745 mmHg 74%
15:00 +12°C° 0 mm 1 mps 745 mmHg 75%
16:00 +10°C° 0 mm 0 mps 745 mmHg 76%
17:00 +10°C° 0 mm 1 mps 745 mmHg 79%
18:00 +10°C° 0 mm 1 mps 745 mmHg 81%
19:00 +9°C° 0 mm 1 mps 745 mmHg 83%
20:00 +9°C° 0 mm 1 mps 745 mmHg 84%
21:00 +8°C° 0 mm 1 mps 745 mmHg 84%
22:00 +7°C° 0 mm 2 mps 745 mmHg 85%
23:00 +7°C° 0 mm 2 mps 745 mmHg 85%

Tomorrow, 1 November, Sunday

Time Temperature Precipitation Wind Pressure Humidity
00:00 +6°C° 0 mm 2 mps 745 mmHg 86%
01:00 +6°C° 0 mm 2 mps 745 mmHg 86%
02:00 +6°C° 0 mm 2 mps 745 mmHg 85%
03:00 +6°C° 0 mm 2 mps 744 mmHg 84%
04:00 +5°C° 0 mm 3 mps 744 mmHg 83%
05:00 +5°C° 0 mm 3 mps 744 mmHg 85%
06:00 +5°C° 0 mm 3 mps 744 mmHg 86%
07:00 +5°C° 0 mm 3 mps 744 mmHg 88%
08:00 +7°C° 0 mm 4 mps 744 mmHg 84%
09:00 +8°C° 0 mm 4 mps 743 mmHg 81%
10:00 +10°C° 0 mm 4 mps 743 mmHg 77%
11:00 +10°C° 0 mm 5 mps 743 mmHg 76%
12:00 +12°C° 0 mm 5 mps 742 mmHg 74%
13:00 +12°C° 0 mm 5 mps 742 mmHg 73%
14:00 +12°C° 0 mm 5 mps 742 mmHg 76%
15:00 +10°C° 0 mm 5 mps 741 mmHg 79%
16:00 +9°C° 0 mm 5 mps 741 mmHg 82%
17:00 +9°C° 0.8 mm 5 mps 741 mmHg 85%
18:00 +9°C° 0.8 mm 5 mps 741 mmHg 87%
19:00 +9°C° 0.8 mm 5 mps 740 mmHg 90%
20:00 +9°C° 0.3 mm 5 mps 740 mmHg 90%
21:00 +10°C° 0.3 mm 4 mps 740 mmHg 90%
22:00 +10°C° 0.3 mm 4 mps 740 mmHg 90%
23:00 +10°C° 0.2 mm 4 mps 740 mmHg 90%

Day after tomorrow, 2 November, Monday

Time Temperature Precipitation Wind Pressure Humidity
00:00 +10°C° 0.2 mm 4 mps 739 mmHg 90%
01:00 +11°C° 0.2 mm 4 mps 739 mmHg 91%
02:00 +11°C° 0.2 mm 4 mps 739 mmHg 91%
03:00 +11°C° 0.2 mm 4 mps 739 mmHg 91%
04:00 +12°C° 0.2 mm 3 mps 739 mmHg 91%
05:00 +12°C° 0.1 mm 3 mps 740 mmHg 91%
06:00 +12°C° 0.1 mm 3 mps 740 mmHg 92%
07:00 +12°C° 0.1 mm 3 mps 740 mmHg 92%
08:00 +12°C° 0.1 mm 3 mps 740 mmHg 92%
09:00 +12°C° 0.1 mm 3 mps 740 mmHg 92%
10:00 +12°C° 0.1 mm 3 mps 741 mmHg 92%
11:00 +13°C° 0.1 mm 3 mps 741 mmHg 91%
12:00 +13°C° 0.1 mm 3 mps 741 mmHg 89%
13:00 +14°C° 0.1 mm 3 mps 741 mmHg 88%
14:00 +14°C° 0.2 mm 3 mps 741 mmHg 89%
15:00 +14°C° 0.2 mm 3 mps 741 mmHg 90%
16:00 +13°C° 0.2 mm 3 mps 741 mmHg 91%
17:00 +13°C° 0 mm 3 mps 741 mmHg 91%
18:00 +13°C° 0 mm 3 mps 741 mmHg 92%
19:00 +13°C° 0 mm 3 mps 741 mmHg 92%
20:00 +13°C° 0 mm 3 mps 741 mmHg 92%
21:00 +13°C° 0 mm 3 mps 741 mmHg 92%
22:00 +13°C° 0 mm 3 mps 742 mmHg 92%
23:00 +13°C° 0 mm 3 mps 742 mmHg 92%

3 November, Tuesday

Time Temperature Precipitation Wind Pressure Humidity
00:00 +13°C° 0 mm 3 mps 742 mmHg 92%
01:00 +13°C° 0 mm 3 mps 742 mmHg 92%
02:00 +13°C° 0 mm 3 mps 742 mmHg 93%
03:00 +13°C° 0 mm 3 mps 742 mmHg 93%
04:00 +12°C° 0 mm 3 mps 742 mmHg 93%
05:00 +12°C° 0 mm 3 mps 742 mmHg 92%
06:00 +13°C° 0 mm 3 mps 742 mmHg 92%
07:00 +14°C° 0 mm 2 mps 743 mmHg 92%
08:00 +15°C° 0 mm 2 mps 743 mmHg 89%
09:00 +15°C° 0 mm 2 mps 743 mmHg 87%
10:00 +16°C° 0 mm 2 mps 744 mmHg 84%
11:00 +14°C° 0.2 mm 3 mps 744 mmHg 86%
12:00 +13°C° 0.2 mm 3 mps 744 mmHg 87%
13:00 +13°C° 0.2 mm 4 mps 745 mmHg 88%
14:00 +12°C° 0.3 mm 3 mps 745 mmHg 87%
15:00 +12°C° 0.3 mm 3 mps 745 mmHg 86%
16:00 +12°C° 0.3 mm 2 mps 745 mmHg 86%
17:00 +12°C° 0.3 mm 2 mps 746 mmHg 84%
18:00 +12°C° 0.3 mm 1 mps 747 mmHg 83%
19:00 +12°C° 0.3 mm 1 mps 747 mmHg 82%
20:00 +12°C° 0.2 mm 1 mps 747 mmHg 81%
21:00 +11°C° 0.2 mm 1 mps 748 mmHg 80%
22:00 +11°C° 0.2 mm 1 mps 748 mmHg 80%
23:00 +11°C° 0.4 mm 1 mps 748 mmHg 81%

4 November, Wednesday

Time Temperature Precipitation Wind Pressure Humidity
00:00 +10°C° 0.4 mm 1 mps 748 mmHg 82%
01:00 +10°C° 0.4 mm 1 mps 749 mmHg 83%
02:00 +10°C° 0.2 mm 1 mps 749 mmHg 83%
03:00 +10°C° 0.2 mm 1 mps 749 mmHg 84%
04:00 +10°C° 0.2 mm 1 mps 749 mmHg 84%
05:00 +9°C° 0.1 mm 1 mps 749 mmHg 84%
06:00 +9°C° 0.1 mm 1 mps 749 mmHg 84%
07:00 +9°C° 0.1 mm 1 mps 749 mmHg 84%
08:00 +10°C° 0 mm 1 mps 749 mmHg 80%
09:00 +10°C° 0 mm 1 mps 749 mmHg 75%
10:00 +9°C° 0 mm 2 mps 749 mmHg 71%
11:00 +10°C° 0 mm 2 mps 749 mmHg 68%
12:00 +10°C° 0 mm 2 mps 749 mmHg 66%
13:00 +10°C° 0 mm 2 mps 749 mmHg 63%
14:00 +10°C° 0 mm 2 mps 749 mmHg 65%
15:00 +10°C° 0 mm 2 mps 749 mmHg 67%
16:00 +9°C° 0 mm 2 mps 749 mmHg 69%
17:00 +9°C° 0 mm 2 mps 749 mmHg 72%
18:00 +9°C° 0 mm 2 mps 749 mmHg 74%
19:00 +9°C° 0 mm 2 mps 749 mmHg 76%
20:00 +8°C° 0.1 mm 2 mps 749 mmHg 77%
21:00 +8°C° 0.1 mm 2 mps 749 mmHg 79%
22:00 +8°C° 0.1 mm 2 mps 750 mmHg 80%
23:00 +8°C° 0.2 mm 2 mps 750 mmHg 81%

5 November, Thursday

Time Temperature Precipitation Wind Pressure Humidity
00:00 +8°C° 0.2 mm 3 mps 750 mmHg 82%
01:00 +8°C° 0.2 mm 3 mps 750 mmHg 83%
02:00 +8°C° 0.2 mm 3 mps 750 mmHg 84%
03:00 +8°C° 0.2 mm 3 mps 750 mmHg 85%
04:00 +8°C° 0.2 mm 3 mps 750 mmHg 86%
05:00 +8°C° 0.1 mm 3 mps 750 mmHg 86%
06:00 +8°C° 0.1 mm 3 mps 750 mmHg 86%
07:00 +8°C° 0.1 mm 3 mps 750 mmHg 86%
08:00 +8°C° 0.1 mm 3 mps 751 mmHg 85%
09:00 +7°C° 0.1 mm 3 mps 751 mmHg 85%
10:00 +7°C° 0.1 mm 3 mps 751 mmHg 85%
11:00 +6°C° 0.2 mm 4 mps 751 mmHg 82%
12:00 +6°C° 0.2 mm 4 mps 751 mmHg 80%
13:00 +6°C° 0.2 mm 4 mps 752 mmHg 78%
14:00 +6°C° 0.1 mm 4 mps 752 mmHg 77%
15:00 +7°C° 0.1 mm 3 mps 752 mmHg 77%
16:00 +7°C° 0.1 mm 2 mps 752 mmHg 76%
17:00 +7°C° 0.1 mm 2 mps 752 mmHg 78%
18:00 +6°C° 0.1 mm 2 mps 753 mmHg 80%
19:00 +6°C° 0.1 mm 2 mps 753 mmHg 82%
20:00 +5°C° 0 mm 2 mps 754 mmHg 84%
21:00 +5°C° 0 mm 2 mps 754 mmHg 85%
22:00 +5°C° 0 mm 2 mps 754 mmHg 87%
23:00 +4°C° 0 mm 2 mps 754 mmHg 88%
Show more